Flag for Portugal Weather past 2 weeks in Portimão, Portugal

52 °F

Passing clouds.

Feels Like: 51 °F
Forecast: 53 / 68 °F
Wind: 3 mph from West

Location: Faro / Aeroporto

Current Time: Nov 26, 2015 at 5:51:48 AM

Latest Report: Nov 26, 2015 at 5:00 AM

Visibility: N/A

Pressure: 30.24 "Hg

Humidity: 82%

Dew point: 46 °F

Location of PortimãoLocation

Historic Weather in Portimão — Graph


Portimão temperature yesterday

Maximum temperature yesterday: 72 °F (at 2:00 PM)
Minimum temperature yesterday: 48 °F (at 4:00 AM)
Average temperature yesterday: 59 °F

Past Weeks' High & Low Weather Summary

High72 °F (Nov 14, 3:00 PM)94% (Nov 11, 7:00 AM)30.45 "Hg (Nov 11, 7:00 AM)
Low45 °F (Nov 22, 7:30 AM)25% (Nov 24, 12:00 PM)29.98 "Hg (Nov 23, 12:00 AM)
Average60 °F72%30.27 "Hg
* Reported Nov 11 3:00 AM — Nov 26 3:30 AM, Portimão, Weather by CustomWeather, © 2015

Note: Actual official high and low records may vary slightly from our data, if they occured in-between our weather recording intervals... More about our weather records


Portimão weather history for previous 24 hours

Time TempWeatherWind HumidityBarometerVisibility
3:30 AM
Thu, Nov 26
54 °FPassing clouds.3 mph82%30.27 "HgN/A
3:00 AM54 °FClear.9 mph82%30.27 "Hg10 mi
2:30 AM54 °FClear.10 mph82%30.27 "Hg10 mi
2:00 AM54 °FClear.5 mph82%30.27 "Hg10 mi
1:30 AM55 °FClear.7 mph77%30.30 "Hg10 mi
1:00 AM55 °FPassing clouds.7 mph77%30.30 "HgN/A
12:30 AM55 °FClear.8 mph77%30.30 "Hg10 mi
12:00 AM55 °FClear.9 mph82%30.30 "Hg10 mi
11:00 PM
Wed, Nov 25
57 °FClear.10 mph77%30.33 "Hg10 mi
10:30 PM57 °FClear.12 mph77%30.33 "Hg10 mi
10:00 PM59 °FClear.13 mph72%30.33 "Hg10 mi
9:30 PM59 °FClear.14 mph72%30.33 "Hg10 mi
8:30 PM61 °FClear.7 mph68%30.33 "Hg10 mi
8:00 PM61 °FClear.9 mph63%30.30 "Hg10 mi
7:30 PM63 °FPassing clouds.8 mph59%30.30 "HgN/A
7:00 PM63 °FClear.10 mph59%30.30 "Hg10 mi
6:30 PM63 °FPassing clouds.6 mph59%30.30 "HgN/A
6:00 PM63 °FClear.9 mph59%30.30 "Hg10 mi
5:30 PM64 °FPassing clouds.9 mph56%30.30 "HgN/A
5:00 PM66 °FSunny.14 mph49%30.30 "Hg10 mi
4:30 PM68 °FSunny.17 mph46%30.30 "Hg10 mi
4:00 PM70 °FSunny.14 mph40%30.30 "Hg10 mi
3:30 PM70 °FSunny.14 mph38%30.30 "Hg10 mi
3:00 PM70 °FSunny.13 mph33%30.30 "Hg10 mi
2:30 PM72 °FSunny.15 mph29%30.30 "Hg10 mi
2:00 PM72 °FPassing clouds.13 mph31%30.30 "HgN/A
1:30 PM70 °FPassing clouds.10 mph33%30.33 "HgN/A
1:00 PM70 °FSunny.17 mph35%30.33 "Hg10 mi
12:30 PM68 °FSunny.14 mph43%30.36 "Hg10 mi
12:00 PM68 °FPassing clouds.9 mph43%30.36 "HgN/A
11:30 AM66 °FPassing clouds.7 mph49%30.39 "HgN/A
11:00 AM64 °FPassing clouds.8 mph56%30.39 "HgN/A
10:30 AM63 °FSunny.12 mph64%30.42 "Hg10 mi
10:00 AM61 °FPassing clouds.6 mph68%30.42 "HgN/A
9:30 AM57 °FPassing clouds.5 mph77%30.42 "HgN/A
9:00 AM57 °FSunny.6 mph77%30.42 "Hg10 mi
8:30 AM55 °FSunny.9 mph77%30.42 "Hg10 mi
8:00 AM54 °FSunny.12 mph82%30.39 "Hg10 mi
7:30 AM50 °FPassing clouds.3 mph82%30.39 "HgN/A
7:00 AM48 °FPassing clouds.3 mph82%30.39 "HgN/A
6:30 AM50 °FClear.9 mph82%30.39 "Hg10 mi
6:00 AM50 °FClear.9 mph82%30.39 "Hg10 mi
5:30 AM50 °FClear.8 mph82%30.39 "Hg10 mi
5:00 AM50 °FClear.9 mph67%30.39 "Hg10 mi
Weather by CustomWeather, © 2015

See weather overviewHow to use our weather pages